sat.trackr.live / text

‹ back to catalog

STARLINK-31005

NORAD 58486 · 2023-186P

PAYLOAD ACTIVE UNKNOWN

§ Identity

Operator
Country
US
Launch date
2023-12-03
Launch site
AFETR
Launch vehicle
Mass (kg)
RCS (m²)

Purposes: comms

External: N2YO · Heavens-Above · Gunter

§ Orbital elements

Epoch: 2026-05-24T22:07:24.320928Z

Period
94.27 min
Inclination
43.0018°
Eccentricity
0.0001654
Mean motion
15.27589186 rev/d
Perigee alt
481.9 km
Apogee alt
484.2 km
Semi-major
6,861.2 km
B*
-1.6366e-4
RAAN
353.2374°
Arg perigee
270.6875°
Mean anomaly
89.3787°
Rev number
13,754

§ Raw data

STARLINK-310051 58486U 23186P   26144.92180927 -.00004764  00000+0 -16366-3 0  99932 58486  43.0018 353.2374 0001654 270.6875  89.3787 15.27589186137541

JSON: /api/v1/satellites/58486 · /tle

For live sub-satellite position, see the globe view (requires WebGL).

§ Visibility from observer

Set your observer location to see the next 7 days of passes ≥ 10°. The values pass through the URL so the page stays shareable.

No JS? Fill the form by hand. The geolocation button needs JavaScript.